Theta_e
316 318 321 324 329 332 329 329 327 324 323 314 314 319 317 320 321 321 322 321 322 321 319 318 319 319 319 318 318 318 319 319 319 318 316 329 328 319 322 318 321 321 321 334 343 343 338 335 337 339 340 342 343 344 343 343 342 341 341 341 343 343 344 342 342 340 340 340 340 341 340 340 338 338 339 339 338 338 338 336 335 331 327 324 322 321 320 319 318 326 334 336 339 340 340 340 342
320 322 324 327 330 331 330 328 323 319 316 312 314 317 317 322 321 321 320 319 321 319 319 318 318 318 319 319 318 319 319 320 320 319 320 326 325 322 326 321 318 322 323 331 341 344 342 337 335 339 339 341 342 343 343 343 342 342 341 341 341 343 344 343 342 341 341 341 340 340 339 339 338 338 339 339 339 339 338 335 332 329 324 318 317 318 319 319 318 323 334 337 338 339 339 340 342
323 326 326 329 330 329 330 327 320 314 312 311 314 319 319 321 320 320 319 318 319 318 319 318 318 319 318 319 319 319 319 319 318 319 320 318 322 324 325 323 317 321 326 328 336 342 345 342 336 336 339 339 341 343 343 342 342 342 342 341 341 341 342 343 343 342 341 340 340 340 339 339 339 338 338 339 339 340 339 337 333 329 323 315 314 315 315 318 320 326 334 337 338 340 339 339 342
323 329 329 329 330 328 330 326 320 314 311 311 314 319 320 320 319 319 319 318 318 318 318 318 318 318 318 318 317 317 318 318 318 319 317 320 327 322 318 318 318 324 329 324 329 338 344 344 338 335 338 339 339 341 342 342 342 342 342 341 342 342 341 341 341 341 340 340 340 339 339 339 338 337 337 339 339 339 340 339 337 334 329 324 322 320 317 317 322 330 335 337 339 340 339 339 341
325 329 327 329 331 327 327 323 320 315 311 313 314 318 320 319 319 318 318 318 318 318 318 318 318 318 318 317 317 317 317 318 319 319 317 323 327 319 315 316 319 327 331 327 328 336 343 342 337 333 336 338 339 339 339 340 341 342 342 342 343 342 342 341 339 340 340 340 340 339 339 338 339 337 337 338 339 339 339 340 339 338 337 335 334 333 331 326 326 333 337 338 340 340 340 340 341
326 326 324 327 328 324 323 318 316 315 315 318 317 318 319 318 318 317 318 318 318 318 317 317 317 317 317 317 318 317 318 318 317 319 320 321 319 316 315 316 322 326 328 332 331 334 341 342 337 332 334 337 339 339 339 339 340 342 342 343 343 343 342 341 339 339 340 340 339 339 339 338 339 337 336 337 338 339 339 340 339 339 340 338 338 339 340 337 333 335 338 339 340 341 341 341 341
326 324 325 325 324 323 323 316 314 316 317 319 318 318 318 317 318 317 317 318 317 318 317 317 317 316 317 317 317 318 318 319 317 319 320 317 314 314 313 316 324 325 324 332 334 333 336 339 337 333 333 334 338 340 340 338 339 340 342 342 342 342 341 340 340 339 340 339 339 339 339 338 338 338 337 336 336 337 337 338 338 339 340 338 338 338 340 341 338 337 337 339 340 341 341 340 341
322 323 325 324 324 324 320 316 316 318 318 318 318 318 317 317 317 317 317 317 318 317 317 316 316 316 317 316 316 320 320 320 318 315 317 316 314 313 312 315 321 323 324 330 336 333 331 332 331 331 331 332 335 340 341 339 338 339 341 341 341 341 340 340 340 339 340 338 338 338 338 338 338 338 337 336 335 335 335 336 336 337 337 337 336 336 337 339 340 338 337 339 340 340 341 341 341
321 322 323 324 325 320 317 316 317 318 319 318 318 317 316 317 316 316 317 317 317 316 317 316 315 315 316 316 315 320 322 320 317 314 319 319 313 312 311 314 318 320 324 331 335 332 329 327 326 327 328 331 335 339 341 340 339 339 340 341 340 341 340 341 340 340 340 338 337 336 337 336 336 337 337 336 336 335 335 336 335 333 334 334 335 335 335 337 340 339 337 339 340 340 340 341 342
321 321 321 324 322 316 314 315 318 319 319 318 317 317 316 316 316 316 317 317 317 316 316 315 314 315 315 316 316 318 321 317 315 316 318 315 312 313 313 316 320 320 321 329 334 332 329 328 326 326 328 330 334 339 340 340 341 340 340 340 340 341 341 340 341 340 340 339 338 336 336 336 336 336 337 337 337 337 336 336 334 333 333 335 336 335 336 338 340 338 338 339 340 341 340 341 342
321 322 321 322 318 311 311 314 317 319 318 318 317 317 316 316 316 316 317 316 316 316 315 315 314 314 314 315 317 319 319 316 317 318 314 312 314 317 316 317 321 320 318 322 327 328 328 330 330 327 328 330 333 337 340 340 341 341 340 340 340 340 340 339 340 340 339 339 339 337 336 337 337 336 337 337 338 337 336 335 332 332 334 335 336 335 337 340 340 339 338 338 340 341 341 340 341
322 323 321 320 316 313 313 314 316 319 319 318 318 316 316 315 316 316 316 316 316 316 315 315 314 313 314 315 318 319 319 318 319 317 313 313 316 318 316 316 318 316 315 316 319 322 326 329 331 330 328 330 334 337 338 340 341 341 341 341 341 340 340 339 338 339 339 339 338 337 337 337 336 336 336 337 337 335 335 333 330 333 335 335 335 335 337 339 339 338 338 338 339 340 341 340 340
321 322 321 319 318 317 316 316 317 319 319 318 317 315 315 315 316 316 315 316 315 316 314 314 313 313 314 315 317 317 319 319 319 316 314 316 318 318 317 318 317 315 315 315 315 319 324 326 328 331 331 331 334 336 337 338 340 341 341 341 340 340 339 338 337 336 338 338 337 337 336 337 336 336 336 337 337 334 333 332 331 333 335 336 336 335 337 337 337 337 338 337 337 339 340 340 339
321 321 321 321 320 319 317 318 318 316 318 318 316 315 315 315 315 315 315 316 315 314 313 313 313 314 314 315 316 315 315 316 315 315 317 319 320 320 320 321 322 321 320 318 317 318 323 327 328 329 330 332 333 335 336 336 338 340 341 341 340 339 339 338 336 335 336 337 336 335 336 337 336 335 335 336 336 334 332 332 331 332 334 335 335 334 336 337 337 338 337 335 335 338 339 339 338
321 321 321 322 317 318 317 318 318 316 317 318 316 315 315 315 315 315 315 315 315 314 314 313 313 314 314 314 315 314 313 313 314 315 316 317 318 320 321 323 323 323 324 324 323 322 323 327 330 329 329 330 332 334 334 334 335 337 339 340 340 339 338 337 336 335 336 336 336 334 335 336 335 334 334 335 336 335 333 332 332 332 333 335 334 334 336 337 338 338 336 334 335 338 339 338 337
320 320 323 321 315 316 317 318 319 317 318 318 316 315 315 316 315 314 314 313 313 316 315 313 313 313 314 314 314 313 313 314 314 315 315 315 315 316 317 318 318 318 322 324 325 326 326 328 329 330 330 329 331 332 333 334 335 335 336 338 338 338 337 336 335 334 335 336 336 333 334 335 334 334 333 334 335 335 333 332 332 332 333 334 335 335 337 337 337 337 336 336 337 338 337 336 336
319 322 323 319 315 316 317 318 318 316 318 317 316 316 315 315 315 314 314 312 313 316 315 314 314 313 313 314 313 313 312 313 313 313 313 313 313 313 313 314 314 314 316 318 319 321 324 327 328 329 331 330 330 331 332 334 334 335 335 335 336 336 336 335 335 335 334 335 335 333 334 334 334 333 333 333 334 334 332 332 332 332 333 334 335 336 337 337 337 336 336 338 338 336 335 335 335
321 324 321 317 317 317 317 318 317 317 317 317 316 316 315 315 315 314 314 314 314 315 314 314 314 312 313 313 313 312 311 311 310 310 311 311 311 312 312 312 313 313 313 315 316 317 317 321 325 326 328 329 330 331 331 332 332 333 334 334 334 334 334 334 335 335 334 335 335 334 333 333 334 333 333 334 334 333 332 332 332 331 333 334 334 335 337 336 336 336 336 337 336 335 335 335 334
321 322 320 318 318 317 317 317 316 316 316 316 316 315 314 314 314 313 314 315 315 314 314 313 312 311 312 313 312 311 310 309 309 309 309 309 310 310 311 311 311 312 313 313 314 314 315 315 318 322 325 327 328 330 331 331 331 331 332 333 334 334 333 334 334 334 334 334 334 334 333 334 334 333 332 333 333 331 332 332 331 330 333 333 333 335 335 335 336 336 337 336 334 334 334 333 332
320 320 320 319 317 317 316 316 316 315 315 315 315 315 314 313 313 313 313 314 314 313 312 312 311 310 311 311 310 310 309 309 308 308 309 309 309 309 309 309 309 310 310 311 311 312 312 313 314 317 320 323 326 328 329 330 330 330 331 331 332 333 334 334 334 334 334 333 333 334 333 333 332 331 331 332 331 330 332 332 329 330 333 332 332 334 333 333 336 336 335 334 333 333 331 330 330
319 318 319 318 316 317 316 315 315 314 315 314 314 314 314 313 313 313 313 314 314 312 312 310 310 310 310 309 309 309 308 308 308 308 308 308 308 308 308 308 308 309 309 309 310 310 310 310 312 313 316 319 322 325 326 327 328 329 330 330 331 332 332 333 334 334 333 332 333 333 333 333 332 331 331 331 332 331 333 332 328 330 332 331 332 334 333 333 334 334 333 331 331 331 329 328 327
317 318 318 316 316 317 315 314 315 314 314 313 314 314 313 313 313 313 313 314 312 311 311 310 310 310 308 307 307 308 307 307 307 307 307 306 306 306 307 306 306 307 307 307 308 307 308 309 311 312 313 315 319 322 324 325 326 327 328 329 330 331 331 332 333 333 333 332 333 333 333 332 331 331 331 331 331 330 332 332 329 330 331 331 332 332 332 331 330 331 330 329 329 329 328 327 326
316 317 317 315 315 315 314 314 314 313 313 313 314 313 312 313 313 312 312 312 312 311 310 310 309 308 307 306 306 306 305 305 305 306 305 305 305 305 305 304 305 305 305 305 306 306 307 309 309 310 311 312 315 318 321 323 324 326 327 328 329 329 331 331 332 333 332 332 333 333 332 332 331 331 331 331 331 330 331 332 330 331 331 330 331 331 330 329 328 328 328 328 328 327 327 328 327
315 317 316 314 314 314 314 313 313 313 312 312 313 312 313 313 313 312 312 312 311 310 309 309 308 307 306 305 304 304 304 304 304 304 304 304 304 304 304 303 304 305 305 305 305 305 306 307 308 309 311 312 313 314 317 320 322 323 325 327 327 328 329 330 331 332 333 332 332 333 332 331 330 331 331 331 331 330 330 331 331 332 331 330 331 330 328 327 326 327 326 326 326 325 325 326 327
317 317 316 314 314 314 313 313 312 312 312 312 312 313 313 312 312 312 312 311 310 310 308 307 306 305 305 304 303 303 303 304 304 304 303 303 303 303 303 303 303 304 305 305 305 305 305 306 307 309 310 312 313 314 315 317 320 322 323 325 326 327 328 329 330 330 331 332 332 331 331 331 330 330 331 331 330 329 330 331 332 332 331 330 331 328 326 325 324 324 325 325 324 323 323 323 324
316 315 314 314 314 313 312 312 312 312 311 311 312 313 313 311 312 312 311 311 310 308 307 305 305 304 304 303 303 303 302 303 303 303 303 303 303 303 303 302 303 303 303 304 305 305 305 305 307 308 310 313 314 315 315 316 318 320 322 323 324 325 327 328 330 329 330 331 331 331 331 331 330 329 330 331 330 329 331 332 331 331 331 331 331 328 327 325 323 323 323 325 324 323 323 323 325
314 313 313 313 314 313 312 312 312 312 310 310 311 312 313 311 312 313 311 310 309 307 306 305 304 304 303 303 302 303 302 302 302 302 302 302 302 302 302 302 302 302 302 303 304 305 305 305 306 306 309 312 313 314 314 315 316 318 320 322 323 324 325 327 329 330 330 330 330 330 330 330 330 329 329 331 331 329 331 332 329 330 331 330 329 328 327 325 323 322 322 324 324 323 323 324 326
313 312 313 313 313 312 312 312 312 312 311 310 311 312 312 312 312 313 311 310 309 307 305 304 304 303 303 302 302 302 302 302 301 301 302 302 302 301 301 301 301 301 302 302 303 304 304 305 305 305 307 309 311 311 312 314 315 316 319 321 323 323 324 326 327 328 329 329 329 328 328 328 329 329 329 330 331 328 330 330 327 328 331 329 328 329 327 325 325 323 322 323 322 322 321 322 324
311 311 313 314 313 312 312 312 312 312 310 310 311 311 312 313 313 312 311 309 308 306 305 304 303 303 302 302 301 301 301 302 301 301 301 301 300 300 301 300 300 300 300 301 302 302 303 304 305 305 306 306 308 309 309 311 313 316 317 319 322 322 323 324 326 326 326 328 329 328 327 327 328 328 327 329 330 329 329 329 328 328 330 329 328 329 329 326 326 325 323 323 321 321 322 323 322
312 312 313 314 313 312 313 312 312 312 310 310 311 309 311 313 313 312 311 309 307 305 304 303 303 302 301 301 301 300 301 301 300 300 300 300 300 300 300 300 299 299 299 300 301 302 303 303 304 305 305 305 306 306 307 307 309 313 316 317 320 321 322 323 324 325 325 326 328 328 327 327 327 327 326 328 329 329 328 328 329 329 328 329 327 328 329 327 325 325 324 323 320 318 320 321 321
314 313 313 315 313 312 314 312 312 312 311 311 310 308 309 311 312 311 310 308 306 304 303 302 302 301 301 301 300 300 300 300 300 299 299 299 299 299 299 299 299 299 298 298 299 301 302 302 303 303 303 304 304 304 305 306 307 310 313 316 318 319 320 321 322 324 324 324 326 328 328 327 326 326 326 327 327 328 327 326 328 328 326 326 327 328 328 326 325 324 324 323 319 317 318 319 320
315 313 313 315 312 312 314 312 311 312 311 311 310 307 308 310 311 310 308 306 305 303 303 302 301 301 301 300 300 299 299 299 299 299 298 298 298 298 299 299 299 299 298 298 298 300 301 302 302 302 302 302 302 303 304 306 307 308 311 313 316 318 319 320 321 322 323 324 324 326 327 327 326 325 325 324 325 327 326 326 328 328 325 325 326 327 327 326 325 323 323 322 320 319 319 320 322
316 313 312 313 312 311 312 312 312 312 311 310 310 309 310 311 310 308 307 305 304 303 302 301 301 301 300 300 299 299 299 299 298 298 298 298 298 298 298 298 298 298 298 298 298 299 300 300 301 302 301 301 301 301 302 305 306 307 309 311 314 316 317 319 319 321 323 323 322 323 325 326 326 325 325 323 324 326 325 326 328 327 324 324 325 326 326 326 324 323 322 321 321 321 321 322 322
314 314 312 312 311 310 310 311 312 311 310 310 310 311 311 310 309 307 306 304 303 303 302 301 300 300 300 299 299 298 298 297 298 298 298 297 297 297 297 298 298 298 298 298 297 298 298 298 299 300 300 300 300 300 300 302 304 306 308 309 311 314 316 317 318 319 321 322 322 323 324 325 325 325 325 324 323 325 325 325 327 326 324 324 325 325 325 325 325 323 322 321 321 322 322 322 321
313 313 311 310 310 309 309 310 311 311 310 309 310 310 310 308 308 306 305 304 303 302 301 301 300 299 299 299 298 298 297 297 297 298 297 297 297 297 297 297 297 297 297 297 297 297 298 298 298 298 299 299 299 299 300 301 302 303 306 307 308 310 312 315 317 317 318 320 321 323 323 323 324 325 325 325 324 324 324 324 325 326 324 324 324 324 324 325 324 324 322 321 321 322 322 322 321
311 311 310 310 311 310 310 311 311 310 309 309 309 308 308 308 308 306 305 303 303 302 301 300 300 299 299 298 297 297 297 297 297 297 297 297 297 297 297 297 297 296 296 296 296 297 297 297 297 298 298 298 298 299 299 300 301 301 303 304 305 307 309 311 314 316 317 318 319 321 322 322 323 324 325 325 325 324 324 324 324 325 324 323 324 323 323 323 323 323 323 322 322 322 321 322 321
309 310 310 311 311 310 311 312 311 310 308 308 308 308 307 307 308 306 304 303 302 301 300 300 299 298 298 297 297 297 297 297 297 297 297 297 296 296 296 296 296 296 296 296 296 296 296 296 297 297 298 297 298 299 299 299 299 300 301 301 303 304 305 306 311 315 317 317 317 317 319 322 323 323 323 324 324 324 324 324 324 324 323 323 323 322 322 322 322 322 323 323 322 321 321 321 320
309 310 311 311 311 311 311 311 311 309 308 308 307 307 307 307 307 305 304 302 301 300 299 299 298 298 297 297 297 297 297 297 297 297 296 296 296 295 295 296 296 295 296 296 295 296 295 296 296 296 297 297 297 298 299 300 299 299 300 300 302 302 303 304 308 312 314 316 316 316 316 319 321 322 322 323 323 324 324 325 324 323 323 322 322 322 321 322 322 322 322 321 321 321 320 320 320
310 311 312 311 311 311 311 311 310 308 307 307 307 307 307 307 307 305 304 302 301 300 299 298 298 297 297 297 296 296 296 296 296 296 296 295 295 295 295 295 295 295 295 295 295 295 295 295 295 295 295 296 297 297 298 299 300 299 299 299 301 302 302 303 304 307 310 313 315 315 314 315 317 320 322 323 323 323 324 325 324 323 322 322 321 322 321 322 322 321 321 321 320 320 320 319 319
311 312 312 311 311 311 311 310 309 307 307 308 307 307 307 307 307 305 303 302 301 299 299 299 298 297 297 297 296 296 296 296 296 295 295 295 295 295 295 294 294 294 295 295 295 295 295 295 295 295 295 295 296 296 297 298 299 300 299 298 299 301 302 301 301 303 303 305 308 312 312 313 315 317 320 323 323 323 323 324 325 323 322 322 321 321 322 322 321 321 321 320 320 319 318 318 318
310 312 313 312 311 310 310 309 308 306 308 308 306 306 306 308 307 305 303 302 300 299 298 298 298 297 297 297 296 296 296 295 295 295 294 295 295 295 294 294 294 294 294 294 294 294 294 295 295 295 295 295 295 296 296 296 298 299 299 299 299 299 300 300 300 301 300 300 303 308 310 311 313 315 317 321 322 322 323 324 324 323 322 322 321 320 321 321 320 320 320 319 319 319 317 317 317
308 312 312 310 309 309 308 308 307 307 307 307 305 304 306 308 308 306 305 303 300 298 298 297 297 297 296 296 296 296 296 295 295 294 294 294 294 294 294 294 294 294 294 294 294 294 294 294 295 295 295 295 295 295 296 296 297 298 298 299 299 299 300 300 299 300 300 300 301 305 308 309 310 312 314 318 321 322 322 323 324 323 322 321 321 320 320 320 319 319 319 319 319 319 317 316 317
309 310 308 307 308 308 307 307 307 307 306 306 304 304 305 306 307 307 305 303 300 298 298 297 297 296 296 295 295 295 295 295 295 295 294 294 294 294 294 293 293 294 294 294 294 294 294 294 294 295 295 295 295 295 295 295 296 296 297 297 298 299 299 300 300 299 298 299 299 301 304 306 307 308 310 313 319 322 321 322 323 323 321 321 321 320 320 319 319 319 318 319 319 318 317 316 316
309 308 305 306 306 306 306 306 307 307 306 305 304 305 305 305 305 307 304 301 299 298 297 297 296 296 295 295 295 295 294 294 294 294 294 293 294 294 294 293 294 293 294 294 294 294 294 294 294 294 294 294 294 295 294 295 295 295 296 296 297 298 298 299 300 300 298 297 297 298 300 304 305 306 306 308 315 321 322 321 323 322 320 321 320 320 320 319 318 318 318 319 319 318 318 317 317
307 305 304 304 304 305 307 307 307 306 305 304 304 305 306 306 307 307 304 302 300 298 297 297 296 295 295 295 295 294 294 294 294 294 293 293 293 293 293 293 293 293 294 294 294 294 294 294 294 293 293 294 294 295 294 295 295 295 295 296 296 298 299 299 299 300 299 296 296 297 298 300 303 305 305 304 307 314 321 321 321 321 320 320 320 320 319 319 318 318 318 318 319 318 317 318 317
305 304 305 306 306 307 308 307 305 304 303 304 305 305 305 306 307 307 305 303 301 298 297 296 296 295 295 294 294 294 294 294 294 293 293 293 293 293 293 293 293 294 294 294 294 294 293 293 293 293 293 293 293 294 294 294 294 294 295 295 296 297 298 299 299 299 299 298 297 297 297 298 300 303 304 304 303 308 317 322 321 321 320 319 320 320 319 318 318 318 318 318 318 317 317 316 316
304 305 307 307 307 307 305 304 303 303 304 305 305 305 304 304 304 305 303 301 299 297 296 296 295 295 294 294 294 294 293 293 293 293 293 293 293 293 293 293 293 293 293 293 293 293 293 293 293 293 293 292 293 293 293 293 294 294 294 295 295 296 297 300 300 299 299 299 299 298 297 297 298 300 302 303 303 304 311 320 321 320 321 320 319 319 319 318 318 317 317 318 318 317 316 315 315
305 306 305 305 305 305 304 304 303 303 304 306 304 303 302 301 302 301 299 298 297 296 295 295 295 294 294 294 294 293 293 293 293 293 293 293 293 293 293 293 293 293 293 293 293 293 292 292 292 292 292 292 292 292 292 292 293 294 294 295 295 295 297 299 299 299 299 299 299 297 297 298 297 298 300 301 303 302 306 315 320 320 320 320 319 318 319 318 317 317 317 317 317 316 316 315 314
305 305 304 304 305 304 305 305 304 304 305 304 302 300 299 299 300 299 298 296 296 295 295 295 294 294 294 294 293 293 293 293 293 292 292 292 293 293 293 293 293 293 293 292 292 292 292 292 291 291 291 291 291 291 292 292 293 294 294 294 295 295 296 298 299 299 299 299 299 298 297 298 297 297 297 299 300 301 302 307 315 320 320 320 319 318 318 318 317 317 316 317 316 316 315 315 314
304 304 303 303 303 303 304 304 304 305 305 302 300 298 297 299 300 300 297 296 295 295 295 295 294 293 293 293 293 293 293 293 293 292 292 292 293 293 293 293 293 292 292 292 292 291 291 291 290 290 290 290 290 291 292 292 293 293 294 294 295 295 296 297 299 299 299 299 299 298 297 297 297 296 296 297 298 300 301 302 308 317 320 320 319 318 318 318 317 317 316 317 316 316 315 314 314
302 303 302 302 303 302 302 302 302 303 303 301 299 298 298 300 300 299 297 295 295 295 295 294 294 294 293 293 293 293 293 292 292 292 292 292 293 293 293 293 292 292 292 291 291 291 291 289 288 288 289 288 289 289 290 290 290 291 292 293 294 295 296 297 299 299 298 298 298 298 297 296 296 296 295 295 296 298 300 300 303 309 317 319 318 317 317 317 317 317 316 316 316 315 315 314 314
302 302 301 301 302 301 301 301 302 301 299 299 298 298 299 300 299 297 296 295 295 295 295 294 293 293 293 293 293 292 292 292 292 292 292 292 293 293 292 292 292 292 291 291 290 290 289 287 286 287 287 286 285 285 286 287 287 287 288 289 291 294 296 296 298 299 298 298 299 298 297 296 296 296 295 294 295 297 298 300 301 304 311 318 318 317 318 317 317 317 316 316 316 316 315 314 314
301 300 301 300 299 300 299 299 300 300 298 299 299 299 300 300 299 297 296 296 295 295 294 293 293 293 293 292 292 292 292 292 292 292 292 292 292 292 292 292 292 292 291 290 289 289 288 286 285 285 285 284 283 283 284 285 285 286 286 286 288 293 296 296 297 299 298 298 299 299 298 297 296 296 295 294 294 295 297 299 300 302 308 316 318 317 317 317 317 317 317 317 316 316 315 314 314
301 300 300 298 297 297 296 295 296 297 298 300 300 299 299 298 298 298 296 296 296 295 294 293 293 293 292 292 292 292 292 292 292 292 292 292 292 292 292 292 291 291 290 289 288 287 286 285 284 284 284 283 283 283 283 284 284 285 286 286 289 292 294 295 297 298 298 298 298 298 298 297 296 296 295 295 294 294 295 297 299 301 305 312 317 317 317 317 317 317 317 317 316 316 315 314 314
299 299 297 296 296 296 295 295 296 297 298 299 299 298 298 298 298 298 297 296 295 294 293 293 293 292 292 292 292 291 291 291 291 292 291 291 291 292 292 291 290 290 289 288 287 286 285 284 283 283 283 282 282 282 282 282 282 283 284 286 287 289 290 292 295 297 298 298 298 298 298 297 297 296 295 295 294 294 295 296 298 300 302 308 315 316 316 317 317 316 317 316 316 316 315 314 314
297 297 296 296 295 295 296 296 296 297 297 298 299 298 297 298 298 297 296 295 294 293 293 293 293 292 292 292 291 291 291 291 292 292 291 291 291 291 291 290 289 288 288 287 286 285 284 283 282 282 282 281 281 281 280 280 280 280 281 282 284 285 286 288 291 295 297 297 298 298 298 297 297 297 296 295 294 294 294 295 296 299 301 305 312 316 315 316 316 316 316 316 316 316 315 314 314
297 296 295 296 296 295 295 295 295 295 295 296 297 297 297 297 296 296 296 294 294 293 293 293 292 292 292 291 291 291 291 291 291 291 291 291 291 291 290 289 288 287 286 286 285 284 283 282 281 280 280 280 280 280 279 279 279 279 280 280 281 283 285 287 289 292 294 296 297 298 298 298 297 297 296 295 294 293 294 295 295 297 299 303 310 315 315 315 315 315 316 316 316 315 315 314 314
298 296 296 296 296 295 296 296 295 295 294 295 295 295 296 296 296 295 295 294 294 293 293 293 292 292 292 292 291 291 291 291 291 290 290 291 291 290 289 288 287 287 286 285 284 282 281 281 280 279 279 278 278 278 278 278 278 279 279 279 280 282 284 286 286 288 290 294 297 297 297 298 298 297 296 295 294 293 293 294 295 296 298 301 306 313 315 314 314 315 315 315 315 315 314 314 314
Wind_Speed
4 4 3 4 4 5 4 4 2 3 3 2 4 1 4 4 2 4 3 4 3 3 6 6 5 5 6 7 9 11 10 9 6 6 6 3 4 14 15 14 13 12 10 7 8 10 15 17 17 17 16 16 16 16 16 17 17 18 18 18 18 17 17 16 16 17 17 16 15 15 16 16 16 16 17 17 18 18 17 16 16 16 16 17 17 17 17 17 17 17 16 16 18 19 16 17 21
5 4 4 5 6 5 1 1 3 2 2 3 4 3 3 1 2 5 7 7 4 4 4 5 6 6 6 8 9 10 7 5 6 7 6 6 11 14 12 14 16 14 12 9 8 9 12 16 18 18 17 17 17 17 17 18 18 18 19 19 19 18 17 17 16 16 17 17 17 17 18 17 17 17 17 18 18 18 18 18 17 16 16 15 15 16 16 17 17 17 16 16 19 20 16 18 21
4 4 5 5 6 5 2 2 3 2 1 3 4 4 3 3 5 7 7 6 5 4 3 4 5 5 6 7 6 8 5 5 8 6 7 11 11 10 13 14 16 14 12 12 10 9 10 14 18 19 19 18 18 18 18 19 18 19 19 20 20 19 18 17 16 16 17 17 18 18 18 18 18 17 17 18 18 18 18 18 17 15 14 12 12 13 15 16 17 17 16 17 20 22 18 18 21
3 5 6 5 5 4 3 2 2 3 2 2 3 5 4 4 6 7 6 6 3 2 2 4 3 1 4 8 7 7 6 6 8 7 7 10 8 12 18 15 14 12 13 16 14 10 10 13 18 19 20 20 20 20 20 19 19 19 20 21 20 19 19 18 17 17 17 18 18 18 18 18 18 18 18 18 18 18 18 18 18 16 14 12 11 11 13 15 16 17 17 18 20 22 18 18 23
3 5 6 6 4 1 3 1 1 2 4 3 2 5 6 6 7 7 6 5 3 2 2 4 3 0 3 6 5 5 6 7 8 10 8 9 11 16 19 16 14 10 11 16 15 11 10 14 19 20 20 22 22 22 21 19 19 20 21 21 20 20 20 19 19 18 18 18 18 18 18 19 18 18 17 17 17 17 18 17 17 16 16 14 13 12 13 15 17 17 18 18 21 22 18 20 26
4 5 5 6 4 2 3 1 1 3 4 4 2 4 5 6 7 7 6 4 3 2 1 3 5 5 6 4 3 4 6 7 8 10 8 12 18 21 22 19 13 11 11 12 14 12 9 13 20 21 21 23 24 24 22 21 20 21 21 22 21 21 21 21 20 19 19 18 18 18 19 19 18 18 17 18 18 19 19 18 17 17 17 18 16 15 15 16 18 18 19 19 22 23 20 22 26
5 4 4 5 3 2 3 1 2 3 3 3 3 4 5 7 7 7 7 4 2 2 1 2 4 7 6 2 3 4 5 5 7 9 10 16 21 23 25 21 14 13 12 10 12 15 13 15 20 22 23 24 25 25 24 23 21 22 22 23 22 23 23 22 22 20 20 19 19 19 19 19 18 18 18 19 19 20 20 19 18 17 18 19 18 17 17 18 19 19 20 20 23 22 21 26 27
4 3 1 3 3 3 2 2 3 3 3 1 2 3 5 7 6 6 7 5 2 2 0 0 2 6 3 3 5 2 3 2 5 10 12 16 20 22 23 22 16 14 13 10 10 15 18 20 22 23 25 25 25 25 24 24 23 23 23 23 24 24 23 23 23 22 21 21 20 20 19 19 19 20 20 19 19 19 20 20 20 19 18 18 18 18 19 20 21 21 21 23 26 23 22 28 29
5 4 2 3 3 2 1 2 3 3 3 2 1 1 2 5 6 5 6 6 5 5 3 3 2 5 6 7 7 1 4 3 6 10 12 15 19 21 23 23 20 17 14 11 10 15 20 23 25 26 26 24 25 25 24 25 25 25 24 24 24 24 24 23 22 22 22 21 20 21 20 20 21 21 21 20 20 19 19 20 21 20 18 17 18 19 20 21 22 23 22 24 26 24 24 30 32
4 4 2 3 4 3 1 2 3 3 4 2 1 2 3 5 6 5 5 6 5 6 4 3 4 6 8 9 6 2 4 6 8 11 13 17 22 21 23 22 20 20 17 12 11 16 19 22 26 27 27 25 24 26 25 25 25 25 25 25 26 26 25 24 23 22 22 21 21 22 21 20 21 21 21 21 21 20 20 20 20 20 19 18 17 18 20 21 22 24 24 26 26 24 26 31 34
3 3 2 3 4 1 2 3 3 3 4 3 3 3 4 5 5 5 6 7 6 7 3 1 4 6 10 8 3 3 7 8 10 13 20 25 23 20 23 21 19 22 22 18 15 18 19 18 23 26 26 24 24 26 25 25 25 25 26 25 26 27 26 25 24 23 22 21 21 21 20 19 20 21 21 22 21 21 21 20 19 18 18 17 17 17 19 19 19 23 26 27 25 24 28 33 34
4 2 2 4 2 3 3 2 3 3 3 4 3 3 4 5 5 6 9 8 8 7 5 4 6 8 9 5 4 4 11 12 13 19 30 30 24 21 23 22 20 22 23 23 21 21 20 17 18 22 24 24 25 26 26 26 25 26 26 25 26 27 26 25 26 26 25 23 23 22 21 20 20 20 21 22 21 20 20 20 18 18 18 18 18 17 18 18 18 22 25 26 24 24 29 34 34
4 5 4 4 3 3 2 1 2 1 4 3 2 3 3 6 6 8 9 9 9 7 8 8 8 6 6 5 5 6 12 17 20 25 30 27 24 24 23 21 21 22 21 23 24 23 22 20 17 17 20 22 25 27 28 28 27 27 27 27 27 27 25 24 25 28 27 26 25 23 22 21 20 20 20 22 21 20 19 19 18 18 18 18 19 19 18 19 20 21 24 25 22 25 31 36 35
3 4 4 3 1 1 2 1 2 2 2 3 2 2 4 5 5 8 8 8 9 9 7 6 8 6 5 7 5 8 14 22 25 24 23 21 21 22 21 20 19 19 19 21 22 23 21 20 18 17 17 17 21 25 29 31 31 30 30 30 29 30 28 25 26 28 27 26 25 24 23 22 21 20 19 20 21 20 19 18 17 18 19 20 21 20 19 19 21 23 24 25 23 27 33 36 36
4 3 3 4 1 1 2 2 3 4 1 4 2 2 6 3 2 7 7 8 7 7 5 1 5 6 7 9 8 11 18 24 24 22 21 19 18 17 18 18 16 15 16 19 20 20 19 17 16 17 17 17 16 19 24 28 31 32 33 33 32 32 31 29 27 27 27 25 25 25 23 23 23 21 20 20 21 21 20 18 17 18 20 21 21 20 19 18 21 23 24 24 24 29 36 37 37
3 3 3 3 1 1 2 3 2 4 4 5 4 1 8 3 2 4 5 5 6 3 2 2 2 4 9 11 11 15 18 20 21 21 21 20 19 17 17 17 17 17 16 17 17 16 17 16 15 15 16 17 15 15 17 20 25 29 32 34 34 33 33 32 29 27 28 26 26 25 23 24 24 23 21 20 21 22 20 20 19 20 21 21 19 16 16 17 19 22 22 23 25 31 38 38 37
2 2 4 3 1 2 2 2 3 4 7 4 2 3 9 7 3 3 2 4 5 1 4 6 5 6 11 14 16 17 17 18 19 20 21 20 19 18 18 18 19 19 19 19 19 19 18 17 16 16 16 16 16 16 16 17 20 23 27 30 33 34 34 33 30 28 28 28 28 26 25 25 25 24 23 21 22 22 21 21 20 21 21 20 17 13 15 17 19 22 22 26 30 31 36 38 36
3 3 3 1 2 3 3 1 4 7 9 7 6 7 8 9 7 6 4 3 3 4 9 10 9 11 15 17 19 17 18 20 20 22 23 21 19 18 18 19 20 21 22 21 21 23 22 19 18 18 18 17 17 17 17 18 19 20 23 25 28 32 35 35 33 30 28 28 28 28 27 27 26 24 22 21 21 20 20 22 21 21 20 19 15 13 17 20 21 22 24 29 31 32 35 37 36
2 3 3 1 5 3 2 1 4 8 10 10 9 8 6 8 8 7 8 4 6 10 11 12 14 16 16 18 19 18 20 21 22 23 24 23 21 20 19 20 22 22 23 22 22 22 23 22 20 20 19 19 19 19 19 19 19 19 20 22 23 27 31 33 34 33 30 29 29 29 28 27 27 25 22 22 21 20 20 21 21 21 20 17 13 13 16 19 22 23 28 31 31 34 37 37 37
1 3 2 4 4 2 2 1 5 8 10 11 9 8 6 5 7 6 7 5 10 13 11 13 15 17 16 17 19 20 21 22 23 24 24 25 24 22 21 22 22 22 23 22 22 22 23 23 22 20 19 19 20 20 20 20 19 19 19 19 21 23 26 28 30 32 32 31 30 29 27 27 28 26 23 23 21 19 20 20 20 19 18 16 12 13 17 20 23 25 28 31 33 36 36 38 38
1 3 1 6 2 2 4 2 6 9 10 8 10 9 5 4 4 5 7 4 9 11 11 14 15 15 15 16 18 20 21 23 24 24 24 25 25 23 22 22 22 21 21 22 22 23 25 24 23 22 20 19 19 19 20 21 20 20 20 19 20 21 23 26 28 29 31 31 30 29 27 26 25 25 24 22 21 19 17 17 20 17 14 12 11 16 21 23 26 29 30 31 34 36 35 36 37
2 1 4 7 2 1 3 2 6 9 9 7 8 7 6 6 2 5 8 7 8 9 11 13 13 14 15 15 17 19 20 21 22 23 23 24 25 24 23 23 23 22 22 23 23 24 26 26 25 23 22 20 18 18 19 21 21 21 21 21 21 21 22 24 26 27 28 28 28 29 28 26 23 23 24 21 20 19 16 15 17 15 11 11 11 18 22 21 25 32 34 33 32 34 34 33 34
2 1 5 5 3 2 1 3 5 7 8 7 7 6 6 5 4 8 9 10 9 9 11 12 13 15 15 16 16 17 17 18 20 22 22 23 24 24 24 23 23 23 23 25 24 25 26 27 27 26 24 23 20 19 18 19 20 21 22 23 23 23 22 22 25 26 27 27 27 28 29 28 24 23 23 23 20 18 18 16 15 14 14 13 14 19 21 21 24 28 31 31 32 33 32 33 34
3 0 6 4 3 2 1 3 5 6 7 7 7 7 6 2 4 7 9 11 10 11 12 12 15 15 15 16 15 16 17 18 20 22 21 21 23 23 23 23 23 23 23 25 25 26 28 28 29 28 26 24 23 21 19 18 19 20 22 23 24 25 24 23 24 26 28 27 27 28 28 28 26 24 23 25 23 20 19 17 15 15 15 14 17 21 24 26 28 27 27 28 30 31 31 33 33
4 2 5 2 0 1 1 2 4 4 5 7 8 6 2 3 4 7 9 10 12 13 13 14 14 14 14 15 15 15 16 19 21 22 22 20 21 23 23 24 25 24 24 24 25 26 28 29 28 29 28 25 25 22 20 19 19 19 21 23 24 26 26 25 26 27 29 28 29 30 28 26 25 24 22 23 24 23 19 17 17 16 16 16 19 25 27 29 32 32 31 30 32 34 32 32 31
1 5 4 3 2 2 3 3 2 1 4 8 8 4 4 4 3 6 9 10 13 13 13 13 13 14 13 13 14 15 15 18 20 21 21 21 22 24 24 25 25 26 26 25 25 26 27 29 28 29 28 26 26 24 22 21 20 20 21 22 24 25 27 27 27 29 30 31 31 29 29 27 25 25 23 22 23 22 19 18 19 17 18 19 22 28 28 29 32 35 34 32 34 38 37 34 32
2 6 6 6 3 3 4 5 5 4 4 11 10 6 3 5 5 3 9 10 12 13 14 13 13 13 12 12 13 14 15 17 20 21 22 23 23 24 24 25 26 26 26 26 26 26 27 28 27 28 27 27 27 26 25 23 22 22 21 22 24 25 26 28 29 29 29 32 34 30 31 30 27 26 26 24 23 23 20 21 24 19 18 21 23 25 27 29 32 35 35 32 34 39 40 37 32
4 7 7 5 6 6 6 7 7 6 3 10 10 7 2 6 4 4 8 9 12 13 14 13 13 12 11 12 12 12 14 17 20 21 22 22 21 22 24 25 26 26 25 26 26 27 28 27 27 27 27 28 29 28 27 25 24 23 23 23 24 26 27 29 31 30 29 31 34 34 33 32 29 28 27 25 25 25 23 23 24 23 21 22 23 22 24 29 31 33 36 36 36 37 40 39 34
4 6 5 4 10 7 5 5 7 6 3 7 9 6 5 6 4 4 6 9 12 13 13 12 11 10 10 11 10 10 13 17 19 20 21 21 21 23 24 25 27 27 25 25 26 28 28 27 26 26 26 29 29 29 28 27 27 25 24 23 24 27 28 29 31 31 31 29 31 35 35 33 31 29 28 27 28 26 25 25 24 24 24 23 24 23 24 29 32 34 35 39 39 37 37 37 35
4 4 4 3 7 7 5 4 8 6 1 5 8 5 2 6 5 3 6 10 12 12 11 10 9 9 9 9 8 9 13 16 17 20 21 21 22 23 24 24 26 27 26 26 26 27 28 27 27 25 26 28 28 28 28 28 28 27 26 24 24 27 28 29 30 30 32 31 30 33 35 35 33 32 30 28 29 28 26 27 25 25 27 27 25 25 26 29 33 33 31 36 39 38 36 35 35
3 3 2 3 2 4 6 3 4 4 1 4 8 6 3 2 2 8 12 12 12 12 10 9 8 8 7 7 8 9 11 15 16 19 22 21 21 22 23 24 25 26 27 27 27 26 26 26 27 26 26 27 27 27 28 28 28 28 27 26 25 26 27 30 32 31 32 32 31 33 35 36 33 32 33 30 29 30 29 28 26 27 29 29 26 25 28 29 31 32 31 34 36 35 35 34 35
3 1 1 1 2 2 6 4 1 2 3 5 7 5 5 8 6 12 15 11 13 12 9 9 9 8 7 7 8 8 9 14 16 18 21 22 22 23 23 24 24 25 26 27 27 26 26 26 26 26 27 27 27 27 27 26 27 28 28 28 26 26 27 29 31 32 32 33 33 34 35 38 36 34 34 32 29 29 30 28 27 30 29 28 28 27 30 29 30 32 33 36 37 35 34 34 34
3 1 2 2 3 2 2 4 3 5 6 4 4 4 6 9 4 12 13 11 14 11 10 9 8 8 7 6 7 8 9 12 15 18 22 22 22 23 22 23 23 24 24 26 27 26 26 26 25 25 26 27 28 28 27 25 25 27 28 28 27 27 27 28 29 28 30 34 35 35 35 36 38 38 35 35 34 31 32 29 27 32 31 29 31 31 30 30 30 32 33 36 38 36 35 34 32
1 2 4 4 4 5 3 2 3 2 4 5 4 5 7 9 5 13 11 12 13 11 10 9 7 6 6 7 7 9 9 11 13 16 20 20 20 22 22 22 22 22 23 24 25 25 26 26 26 25 25 26 27 28 28 26 25 25 25 26 27 28 28 28 28 29 30 33 33 36 37 34 35 38 37 37 37 33 32 30 27 32 35 32 33 33 31 30 31 32 33 35 35 34 35 35 32
5 4 5 6 5 6 7 3 2 1 4 6 6 5 8 10 5 13 10 11 11 11 10 7 7 6 6 6 7 9 10 11 12 15 19 18 19 21 21 21 21 22 23 24 25 24 25 26 27 27 26 26 27 27 27 26 25 24 23 23 26 27 27 28 29 30 33 32 31 33 37 36 35 35 35 38 38 35 33 30 27 30 35 35 35 35 33 32 31 31 34 37 35 33 34 36 35
6 6 6 7 7 6 8 4 4 2 7 6 6 7 9 11 2 12 9 10 10 10 9 6 6 5 6 6 7 8 9 9 11 16 18 18 19 20 21 21 22 23 24 25 26 25 25 27 28 28 28 28 27 27 26 26 26 25 23 24 24 25 27 30 30 31 32 31 30 32 35 37 38 34 35 39 39 36 32 29 29 31 35 37 37 37 35 34 32 30 34 39 36 30 31 34 35
6 7 7 8 9 7 5 4 5 4 5 6 8 10 12 13 3 13 10 10 10 9 9 6 5 5 6 7 8 8 8 8 11 15 17 18 20 22 22 22 24 25 25 27 27 26 27 28 28 28 28 29 29 27 26 25 26 25 25 25 24 24 27 30 31 31 32 30 31 33 33 36 39 37 36 39 39 36 32 30 31 31 34 38 38 39 39 36 35 32 35 39 37 31 30 32 35
7 7 7 7 7 7 6 3 4 2 4 6 10 11 14 12 6 14 9 10 9 8 8 7 6 6 6 6 7 7 8 8 11 15 17 20 23 25 25 23 26 27 27 28 27 28 29 29 28 28 28 29 30 29 26 25 25 25 26 26 26 24 25 26 28 31 34 33 31 31 31 32 37 39 38 38 38 37 33 32 33 31 32 36 37 40 41 38 37 36 35 36 34 33 31 32 38
7 6 6 6 5 6 4 3 4 3 6 8 10 10 14 7 10 12 9 10 8 8 8 7 6 6 5 6 7 8 10 11 12 14 18 23 25 26 25 25 27 28 28 29 28 29 29 29 30 30 31 29 29 30 28 26 26 26 26 27 26 25 23 24 27 30 32 32 30 29 29 30 33 38 39 38 38 38 37 35 36 35 32 35 37 38 42 40 37 38 38 37 33 31 29 33 42
6 5 6 6 5 6 3 2 4 9 7 6 9 10 10 2 11 9 8 10 9 9 8 7 5 5 5 5 7 9 12 12 12 14 17 22 24 25 25 26 28 28 28 29 29 30 29 30 32 32 33 31 30 31 32 30 28 27 28 28 26 25 24 24 26 28 31 35 34 31 30 29 33 34 36 39 38 39 40 38 38 39 37 37 38 36 41 43 40 39 40 40 37 30 25 31 41
7 6 5 6 5 5 6 7 11 11 3 3 7 10 7 6 12 8 8 9 9 8 7 6 5 4 4 5 8 10 11 11 13 15 18 21 24 26 27 28 29 29 29 30 31 31 31 32 33 33 34 34 33 32 34 34 31 28 29 29 26 24 24 24 24 26 30 34 34 33 31 30 32 33 33 37 40 39 41 41 40 42 41 39 39 37 42 46 43 42 43 42 42 36 29 30 37
7 2 2 5 6 6 9 11 11 9 3 4 8 9 4 7 12 11 9 9 9 7 5 5 4 4 5 7 8 9 10 11 12 15 19 22 25 28 29 30 31 31 31 32 33 34 34 35 35 35 34 35 35 34 34 35 33 30 29 29 28 25 23 20 20 22 27 30 30 32 31 29 31 32 34 35 39 40 39 41 41 44 43 41 41 37 42 48 45 43 45 44 42 41 34 30 32
6 2 4 4 5 7 9 11 9 6 7 6 6 7 6 4 8 12 13 11 11 8 5 5 3 4 5 7 8 9 12 12 12 15 19 22 25 27 28 31 32 32 33 34 34 35 36 37 37 37 38 38 37 35 36 35 34 33 31 31 30 28 25 20 18 22 27 30 29 30 30 28 29 31 34 36 36 41 40 39 41 42 42 44 41 34 39 49 49 45 46 46 44 43 39 33 33
3 4 5 6 6 9 9 9 8 6 10 10 7 9 8 8 7 11 16 13 11 8 4 5 4 5 7 9 10 12 14 13 13 15 19 22 25 27 27 30 31 31 33 32 34 35 33 35 38 40 44 46 42 36 35 36 35 34 34 33 31 30 29 24 20 22 27 30 29 28 29 28 28 29 32 37 36 39 42 41 41 38 35 40 41 35 38 49 50 46 47 48 45 45 44 41 39
3 6 5 6 6 8 9 8 8 8 10 9 6 6 7 8 5 10 14 12 10 6 2 3 5 7 9 11 12 13 14 14 14 15 19 22 26 28 29 30 31 31 31 30 34 37 36 39 43 43 45 47 47 41 35 35 37 36 35 34 32 31 31 28 23 21 23 27 30 28 27 28 27 29 31 36 40 34 37 42 41 40 34 35 41 38 38 47 50 47 48 48 45 46 46 44 42
4 6 6 7 7 8 8 7 8 9 8 9 9 8 7 7 4 8 10 10 8 3 2 3 6 9 10 11 12 15 15 13 14 16 19 24 28 29 30 31 32 32 31 32 35 39 41 42 44 44 43 42 45 45 39 37 37 37 36 34 34 33 32 30 25 21 20 22 26 27 26 28 27 28 31 33 40 39 33 41 42 43 41 38 41 41 38 44 51 49 48 49 47 45 44 44 43
6 6 7 7 7 8 8 7 7 7 7 9 9 9 8 6 4 5 4 4 4 1 3 3 7 9 10 11 12 15 15 13 14 16 20 26 30 30 30 31 33 34 35 36 37 39 42 42 42 44 45 42 43 44 43 41 39 37 36 35 36 35 32 31 27 23 20 18 21 25 24 25 26 26 30 32 37 41 35 39 43 42 44 42 41 42 40 44 51 52 50 49 48 46 45 45 43
5 5 6 7 6 6 6 5 3 5 7 4 2 4 5 7 3 2 3 5 5 1 3 4 7 9 11 12 13 15 14 14 15 15 17 23 26 27 29 31 34 36 38 39 39 39 40 41 42 44 45 44 42 41 42 42 41 38 37 36 36 36 33 31 28 24 21 18 19 24 24 21 24 24 27 31 34 38 39 34 40 40 39 41 41 40 40 43 49 55 53 49 47 46 45 45 42
5 5 4 5 6 6 5 4 3 6 6 2 7 4 3 9 8 4 7 7 4 3 3 4 7 10 12 13 15 14 13 14 15 15 16 18 19 24 28 31 35 37 38 39 40 41 40 38 41 44 45 45 44 42 41 42 41 39 37 37 36 37 34 31 27 23 21 18 17 21 23 20 20 22 24 29 31 33 38 36 32 39 38 38 41 41 40 42 47 55 55 50 48 47 45 45 44
4 3 2 3 5 6 6 5 5 7 3 3 4 5 4 8 9 6 9 7 4 4 4 5 8 11 12 14 15 14 15 15 15 16 17 16 18 25 28 31 35 37 38 39 40 43 42 37 41 44 45 47 45 42 41 40 39 38 37 37 36 36 35 30 27 24 22 19 16 19 22 21 18 19 22 26 29 31 34 39 34 34 40 40 39 41 39 38 43 52 54 51 48 47 48 47 45
1 1 1 4 4 5 6 5 6 7 6 4 2 3 4 6 2 8 10 7 5 3 3 6 9 10 11 12 14 15 15 15 15 16 18 18 23 27 29 31 34 36 37 39 41 43 38 36 44 47 43 45 45 43 43 40 39 40 38 37 37 37 35 30 27 25 22 20 17 18 22 22 20 18 21 24 27 29 32 35 38 33 36 41 39 40 41 38 40 46 48 50 48 45 47 48 46
1 2 1 3 3 5 6 7 7 6 9 8 3 3 5 2 5 11 9 6 5 3 3 6 10 11 12 12 13 14 15 15 16 17 18 21 27 30 31 33 35 36 38 39 42 42 35 34 43 45 39 41 45 47 46 43 43 44 41 41 44 41 37 32 28 25 23 22 19 18 23 24 21 19 20 24 25 27 31 31 34 38 36 40 41 41 43 42 42 45 44 47 49 46 48 49 46
2 2 2 1 3 2 5 8 5 1 7 6 4 5 6 3 5 9 9 5 2 2 5 8 11 12 13 12 12 14 15 16 16 17 18 21 27 31 32 33 37 39 41 42 43 41 36 36 39 42 41 40 42 43 41 41 42 43 41 42 45 42 37 33 29 27 27 26 21 19 23 26 23 21 19 22 25 25 30 32 30 36 37 38 43 43 44 45 45 46 45 46 48 47 48 49 46
1 2 1 3 3 1 2 4 3 3 8 6 5 7 8 6 4 7 9 4 4 6 8 11 12 13 13 12 13 15 16 17 17 18 19 21 27 31 31 33 39 42 42 42 40 36 36 38 40 43 44 42 41 40 38 38 39 42 42 39 38 38 36 34 31 28 29 29 24 20 22 26 25 24 19 19 25 25 28 31 30 33 37 35 41 44 44 46 45 44 44 46 49 48 46 46 47
0 1 1 1 1 2 3 3 3 5 8 7 6 7 7 8 4 5 7 4 7 8 10 11 12 13 13 13 15 18 18 18 17 17 18 20 26 30 31 34 40 42 40 39 39 38 38 40 42 43 43 43 42 40 38 37 36 38 41 38 35 36 37 36 35 32 30 31 27 23 25 29 28 25 20 18 22 25 26 30 30 30 34 35 38 45 45 46 46 44 43 45 47 48 46 45 46
2 0 1 1 1 3 4 2 1 5 7 7 7 5 4 6 2 2 4 5 6 8 10 10 12 13 13 14 16 17 18 17 17 17 19 21 25 31 34 36 39 39 38 38 38 39 39 39 41 41 41 41 41 38 37 38 36 36 38 39 38 39 39 38 38 36 33 33 32 27 27 29 29 26 22 18 20 24 25 27 30 30 31 35 36 42 45 45 46 44 43 44 45 47 46 44 46
5 5 5 3 2 2 4 3 2 3 6 6 7 9 5 3 3 1 4 4 5 8 11 10 12 13 14 16 17 17 18 18 18 19 20 21 25 32 37 36 36 37 37 38 37 36 39 40 39 39 40 39 38 36 35 37 37 36 35 36 36 38 37 35 36 38 36 34 33 30 28 28 29 29 25 19 18 21 24 25 29 31 30 33 35 38 44 43 43 43 43 44 46 47 47 46 46
4 6 6 6 5 4 4 5 3 2 5 6 6 11 8 3 1 4 4 3 5 8 11 11 12 14 15 16 18 19 18 18 20 22 20 20 25 31 35 35 36 36 36 37 35 32 34 38 38 38 39 37 36 36 36 36 37 36 35 35 35 34 33 31 33 37 38 34 31 31 31 29 29 31 28 21 17 19 23 23 26 30 30 30 33 35 43 44 42 43 43 43 44 46 47 46 45
Wind_Direction
308 293 256 215 207 226 215 231 245 184 238 69 62 41 64 40 319 317 359 3 345 55 18 337 324 311 300 315 319 313 301 293 295 302 319 55 352 323 325 326 320 302 290 258 218 239 242 227 225 221 214 209 211 214 216 217 215 216 215 217 221 221 220 219 218 220 222 223 222 219 221 224 225 228 227 227 226 224 224 229 236 243 248 249 247 245 243 242 241 241 244 246 249 249 249 241 218
308 276 234 221 212 230 214 218 265 188 197 98 70 22 37 311 290 352 2 360 357 20 355 317 311 295 290 287 289 293 290 291 291 297 312 343 331 331 343 339 327 304 285 266 224 229 239 232 228 223 221 213 213 218 219 221 220 221 220 220 223 223 222 222 223 224 225 225 226 224 225 226 226 228 230 229 228 226 225 229 237 243 247 248 247 244 240 239 239 239 240 242 247 247 244 238 221
293 258 224 221 213 231 254 217 278 334 95 79 72 55 18 322 355 359 359 2 360 353 309 295 290 279 290 275 289 305 306 328 320 315 316 325 326 343 346 330 325 307 280 270 245 226 226 232 235 227 224 221 217 219 222 224 224 224 223 222 225 228 226 224 226 226 227 228 229 228 228 227 227 232 233 232 230 229 226 228 236 241 242 243 244 245 241 237 237 237 236 236 243 244 239 233 216
294 258 237 238 222 222 249 242 301 331 39 55 74 64 19 354 360 352 0 5 4 329 286 308 291 198 303 302 322 310 301 325 340 347 317 324 327 324 324 318 320 303 277 276 261 238 228 232 241 235 227 225 222 220 223 227 227 227 226 225 228 231 229 229 231 229 228 231 231 230 230 228 229 235 235 233 233 232 230 229 233 239 241 241 240 245 245 242 237 234 234 231 238 240 235 227 210
297 261 250 257 259 239 268 270 310 345 44 4 36 58 21 4 357 352 350 354 22 10 328 317 321 47 275 291 309 306 328 328 337 346 318 323 324 314 317 318 317 294 273 275 267 251 241 240 243 242 233 228 227 225 225 227 228 229 228 228 230 231 231 233 236 235 232 232 234 232 232 231 231 235 236 234 235 233 234 233 234 238 240 242 241 242 245 244 238 232 232 229 234 235 227 218 209
287 265 235 246 276 320 278 237 35 62 57 342 11 45 16 9 356 347 334 359 63 64 6 325 332 313 273 263 262 271 323 324 326 339 327 322 319 314 315 315 312 296 281 269 268 260 251 253 249 247 241 234 231 229 228 227 229 231 230 231 233 234 235 236 238 239 236 234 235 235 235 234 234 235 236 233 233 233 233 233 234 238 241 243 243 242 244 244 239 232 229 228 232 230 220 213 206
291 289 217 229 249 251 270 22 40 69 67 347 14 25 11 7 353 338 332 8 84 125 128 328 336 300 274 287 285 234 272 293 307 323 322 316 317 318 318 316 308 300 291 266 264 261 253 254 253 251 247 242 236 233 232 230 230 233 233 233 236 238 239 241 241 240 238 237 237 238 237 238 238 236 236 235 235 236 237 235 234 237 241 245 246 246 246 243 240 233 227 229 231 226 218 212 201
272 287 239 249 236 211 270 56 52 42 72 40 25 24 7 358 349 333 331 350 356 22 144 230 332 291 294 323 311 181 192 242 297 315 321 320 327 329 326 323 311 304 301 280 264 264 260 254 253 254 252 248 243 238 234 234 234 234 235 234 239 242 242 243 241 240 241 240 239 239 241 241 241 238 239 242 242 242 241 240 240 241 244 249 251 252 250 245 240 234 228 231 232 228 218 207 197
244 249 260 267 254 212 229 105 85 59 91 134 149 95 356 346 338 319 322 334 340 341 348 30 326 284 326 326 311 15 110 63 335 333 345 341 340 338 333 329 320 313 308 292 276 274 270 264 260 257 257 253 246 243 240 239 237 236 237 236 237 239 242 244 242 241 241 242 242 241 244 246 248 247 245 248 248 247 245 244 246 247 250 253 255 256 254 248 240 233 228 232 234 231 216 201 195
246 236 268 280 270 234 165 98 95 99 99 120 129 69 354 343 328 307 303 319 335 327 352 25 276 274 315 315 309 16 64 22 359 3 3 348 342 339 335 331 323 318 314 303 289 283 281 277 271 262 260 258 247 242 244 245 242 239 239 239 238 237 239 243 245 244 241 242 245 246 250 253 254 254 252 251 251 251 250 248 248 248 252 256 258 259 256 251 241 231 228 231 232 228 216 201 195
264 211 253 275 265 282 43 59 80 96 93 136 143 57 356 337 314 306 312 320 333 323 5 65 303 319 312 311 338 76 79 36 31 14 352 347 345 339 336 334 325 320 319 311 297 290 291 286 281 273 265 259 249 242 243 246 246 245 242 242 240 239 242 243 244 245 244 243 246 250 254 255 255 257 257 256 255 255 252 249 248 247 251 256 261 263 259 254 242 231 228 230 228 222 211 200 193
287 279 269 272 302 23 33 31 52 91 128 145 126 59 351 327 304 320 333 333 331 337 44 33 342 334 317 335 345 54 82 51 28 2 350 350 347 343 343 342 333 326 323 319 310 300 295 291 285 282 276 263 252 246 243 243 244 246 245 245 243 244 247 247 245 243 244 245 249 252 254 256 256 257 259 260 260 257 252 248 248 247 251 257 262 266 260 252 240 231 230 231 229 222 209 199 193
303 326 293 284 355 14 26 5 21 151 166 119 60 41 335 320 329 337 337 331 340 7 32 3 336 313 319 345 321 4 54 31 10 358 354 354 351 354 356 352 347 343 337 331 323 312 302 295 288 281 281 271 257 251 247 245 243 243 244 246 246 247 250 249 248 246 245 246 249 252 253 255 255 257 258 261 262 258 251 249 250 251 255 259 261 266 260 248 237 233 234 232 230 223 207 197 193
318 329 299 296 19 358 351 350 8 312 165 98 51 28 315 306 343 336 333 340 8 25 6 346 326 309 334 343 342 2 9 8 3 357 355 355 352 350 350 349 349 349 349 348 339 327 313 298 291 281 277 273 264 257 253 251 247 244 244 245 247 249 251 251 250 250 248 245 247 250 251 253 255 257 258 260 260 258 255 254 254 253 258 261 262 265 259 246 237 236 237 235 229 218 203 192 187
318 321 284 279 212 150 16 21 351 298 1 58 97 26 315 305 7 328 352 351 359 11 338 339 321 329 359 346 5 6 355 4 4 1 4 3 359 350 346 346 344 342 341 344 343 337 326 306 295 287 278 271 263 259 257 256 254 250 246 246 247 249 251 253 252 252 249 243 244 247 249 253 255 257 256 256 255 256 259 257 254 254 259 261 263 267 259 243 235 235 236 235 223 210 197 184 178
310 306 266 256 194 166 34 3 311 266 339 31 132 134 323 345 88 326 9 343 320 343 330 51 10 350 2 357 13 5 358 9 8 9 14 11 9 5 3 360 355 353 346 340 339 339 330 315 302 293 285 276 265 259 258 257 259 258 254 250 249 250 252 255 254 253 250 243 242 245 248 252 255 256 254 252 251 252 255 255 252 253 256 258 264 264 253 241 229 226 225 219 206 197 189 179 175
283 263 258 253 140 117 43 340 319 308 321 356 120 20 339 341 26 359 342 263 281 345 58 41 53 23 10 22 24 11 12 18 16 18 21 18 14 12 11 9 7 4 0 354 349 347 338 326 315 304 293 285 276 266 259 256 258 261 261 257 253 252 253 256 256 254 251 244 241 242 245 249 251 251 251 250 247 246 249 250 247 250 253 256 262 252 238 230 217 214 209 199 190 184 180 178 175
269 259 266 279 83 83 47 338 332 313 302 323 346 6 356 334 350 6 343 226 229 32 46 29 25 18 18 34 31 25 28 26 24 27 26 23 18 16 15 12 11 9 5 1 356 353 347 337 327 317 306 296 287 277 267 261 258 258 260 261 257 254 253 254 254 253 251 246 241 240 242 245 246 246 247 245 241 242 246 247 244 247 252 255 259 247 229 213 205 203 195 188 182 174 169 169 168
273 293 278 72 65 64 47 11 315 299 299 320 336 1 359 335 342 356 351 16 54 40 31 10 4 3 10 34 35 30 31 29 29 29 29 25 21 19 17 15 12 10 6 2 359 357 354 346 336 326 317 308 297 287 278 270 263 257 256 257 257 256 254 252 251 251 250 248 244 241 241 240 240 242 246 245 241 242 242 242 242 245 250 251 251 241 218 198 195 192 186 182 174 168 164 162 164
309 303 280 85 60 97 99 327 290 293 302 318 331 339 336 339 343 352 338 358 51 43 20 4 359 357 7 31 32 28 29 31 30 29 30 26 23 20 18 17 14 11 7 4 2 0 359 352 344 334 322 314 306 296 288 280 271 263 257 254 254 255 253 250 249 249 247 247 246 243 239 237 238 240 244 246 240 235 234 237 239 242 249 249 241 220 198 185 185 181 178 174 166 164 163 162 166
331 298 14 80 43 150 111 311 286 294 304 319 324 322 333 347 338 355 346 5 53 37 18 9 1 6 21 33 30 27 28 29 28 29 29 26 24 22 19 16 14 12 8 5 5 4 2 356 350 342 330 319 310 303 295 288 282 273 265 256 253 253 253 250 247 247 245 243 243 242 238 236 236 235 237 237 228 225 229 236 237 237 240 239 222 197 188 179 171 167 167 160 158 162 162 163 167
268 249 68 73 12 94 100 294 284 297 307 316 315 324 338 328 357 38 26 46 48 29 21 16 19 30 36 37 34 31 29 28 27 27 26 25 23 20 18 15 13 10 8 6 3 1 360 357 354 348 341 330 315 306 300 294 289 281 272 263 256 253 253 253 248 245 244 241 239 240 238 235 232 230 232 230 226 227 222 226 229 221 216 215 200 190 191 183 159 155 160 154 154 159 158 159 162
273 129 87 70 24 49 87 286 283 296 311 317 323 339 321 308 76 66 52 51 46 49 38 33 46 46 42 42 39 35 31 29 27 25 24 22 21 18 14 11 10 8 6 5 0 358 356 355 355 352 349 342 330 316 305 299 292 284 278 272 265 257 252 253 250 247 244 241 237 236 235 233 231 228 228 227 225 223 216 214 212 202 202 203 198 190 184 179 162 151 153 153 155 156 155 158 160
250 345 90 79 25 45 280 283 287 299 311 313 314 307 299 317 94 84 58 47 55 66 56 57 62 51 46 44 39 37 31 29 26 23 22 20 18 16 13 10 7 4 3 2 360 358 355 353 353 352 351 348 343 331 316 305 296 289 284 278 272 266 258 252 249 247 246 244 238 235 233 232 231 227 227 227 221 217 215 210 200 192 193 194 194 185 167 166 171 165 159 157 158 158 157 161 163
212 320 62 85 286 103 236 257 282 300 305 306 305 294 330 57 103 89 49 51 75 76 70 72 67 56 51 42 36 35 29 27 25 21 19 17 14 12 12 9 5 2 360 358 358 358 355 352 352 352 351 349 345 338 328 317 303 293 287 283 278 274 267 258 251 247 245 245 242 239 235 230 228 227 225 223 217 213 212 202 193 189 187 185 183 177 166 164 170 171 170 167 166 165 163 164 167
166 327 354 308 244 154 201 197 211 257 330 328 326 323 88 105 143 90 51 66 88 84 82 76 67 62 52 43 36 30 29 27 22 18 16 12 10 9 8 6 2 0 357 355 356 356 354 352 351 351 350 348 344 340 335 327 314 301 290 285 283 279 273 266 259 250 244 244 244 242 237 228 225 228 225 219 214 208 204 197 193 188 186 187 180 175 172 171 171 171 174 173 169 169 169 169 170
345 315 306 278 230 153 181 173 168 166 356 347 339 333 104 164 206 95 60 79 97 89 83 73 65 62 49 45 39 29 29 25 21 17 13 11 9 5 2 2 0 357 354 354 354 352 351 351 351 349 348 347 343 339 335 329 322 312 298 289 285 281 278 272 266 256 246 244 244 242 239 232 224 225 224 220 218 209 200 198 198 192 187 190 189 184 179 180 179 176 178 177 173 170 169 171 171
315 310 300 240 171 146 170 170 177 186 358 347 330 314 199 180 202 70 56 76 96 85 76 71 64 59 49 44 38 31 27 23 21 17 13 9 4 1 359 0 358 355 353 352 351 350 349 349 350 349 348 346 344 341 336 331 325 318 306 296 286 281 280 276 272 263 252 247 245 240 239 238 227 222 223 218 217 213 204 201 201 197 190 191 193 191 188 191 188 180 180 180 176 172 168 172 176
282 290 298 154 145 153 176 169 182 196 359 335 314 298 211 170 137 67 59 84 92 82 73 70 64 60 51 41 36 33 27 23 22 18 12 5 1 359 357 358 357 354 351 349 349 350 349 348 347 346 347 346 343 341 338 333 327 321 313 304 293 287 283 278 275 268 260 255 250 243 239 240 233 223 224 223 218 213 207 201 199 196 194 194 193 189 187 191 188 182 181 178 175 175 171 172 176
245 241 278 178 151 166 175 161 180 187 4 317 316 320 214 149 136 101 102 108 97 85 79 76 70 64 51 40 34 31 27 22 20 16 9 3 2 358 354 355 356 354 350 346 347 348 347 347 345 342 343 344 342 339 336 333 328 322 316 309 302 296 289 281 277 271 265 259 253 247 238 237 238 228 223 225 221 213 207 202 195 192 194 194 193 189 185 187 187 183 178 174 174 176 175 175 175
201 157 221 215 158 157 157 150 192 197 344 332 333 325 303 329 55 91 109 116 102 95 89 82 74 63 51 41 30 26 27 20 15 12 7 2 360 356 353 353 352 352 350 347 346 345 344 344 343 340 339 340 339 337 334 330 327 324 318 312 307 302 296 288 280 274 271 265 256 250 241 235 237 236 228 227 226 217 212 208 197 192 196 195 192 191 189 185 184 181 174 171 174 175 174 176 177
199 186 196 178 11 120 137 112 81 353 351 5 351 320 303 316 0 92 113 117 106 104 97 88 76 63 50 37 29 20 20 16 11 7 4 1 359 355 351 350 349 349 349 347 345 343 341 340 340 338 337 337 336 335 332 329 327 324 320 313 308 304 301 296 286 276 271 270 261 253 248 240 237 241 237 231 232 226 216 210 198 192 195 194 190 191 191 185 179 179 177 174 173 174 174 176 179
184 258 333 341 325 319 126 126 89 25 356 1 345 291 291 309 17 103 119 115 111 110 102 92 74 63 48 33 29 17 11 10 6 3 1 359 356 353 348 347 347 346 345 345 344 342 341 339 337 335 334 334 333 333 330 328 327 324 321 316 311 307 303 300 295 282 270 269 266 257 251 245 239 239 239 234 233 231 219 210 200 195 197 194 189 191 192 187 180 177 177 176 174 174 174 176 177
267 348 332 303 299 305 285 195 150 59 355 322 274 241 276 308 70 116 125 118 117 112 104 96 77 67 48 35 25 14 9 6 1 357 355 352 351 350 347 345 343 343 342 342 342 341 339 338 336 333 331 330 330 330 329 326 325 323 321 320 318 313 306 302 300 295 282 272 268 260 251 246 241 236 235 233 232 232 225 214 200 194 198 195 189 192 194 190 185 179 175 176 177 175 173 173 175
297 313 311 294 294 282 271 268 157 140 315 293 268 251 283 308 97 125 126 121 118 109 106 100 86 72 49 36 20 13 5 1 356 349 348 347 347 347 346 346 343 341 338 337 337 335 335 335 332 330 329 329 328 327 328 326 324 322 320 320 321 318 313 307 303 301 296 287 276 266 256 250 245 236 232 232 231 233 231 218 198 191 195 193 188 190 192 191 188 182 176 175 178 180 177 174 173
286 288 281 276 282 271 269 286 112 78 307 279 280 288 293 304 141 134 128 123 116 108 110 97 89 72 46 34 17 10 359 357 351 345 349 348 346 346 345 345 343 340 338 336 333 331 332 332 330 328 327 328 327 326 327 327 325 323 322 321 320 320 319 313 306 300 299 297 291 281 267 254 246 240 236 235 233 231 227 215 199 193 193 192 188 188 190 192 190 182 177 175 176 179 180 176 173
276 277 271 270 278 275 279 284 123 87 313 276 294 298 297 304 172 143 138 129 119 113 112 96 85 61 37 24 12 3 357 356 347 347 351 349 348 347 344 343 340 338 338 336 333 331 331 328 326 325 325 326 325 323 322 323 324 323 322 320 317 316 319 317 310 304 301 299 299 295 282 263 249 244 241 238 235 231 225 215 202 194 192 193 192 191 192 193 193 189 180 177 176 175 176 176 173
279 276 280 282 282 293 309 294 140 76 323 290 300 302 300 301 159 147 145 135 123 115 109 93 76 52 34 18 5 359 360 356 348 349 351 351 351 348 344 341 338 336 336 334 332 331 329 326 324 321 321 320 320 318 314 313 317 319 317 314 312 311 313 317 313 309 308 303 301 303 300 283 262 249 241 239 236 231 226 216 207 201 195 196 196 194 194 194 195 191 181 178 178 177 177 176 171
281 277 281 283 303 328 316 158 127 331 306 298 307 305 300 289 151 151 150 132 116 109 101 87 71 44 28 15 5 2 2 356 349 349 350 351 348 344 342 338 336 334 332 330 329 329 328 326 325 321 319 315 314 314 310 306 307 310 312 308 308 307 307 314 316 314 316 315 310 309 310 304 288 266 248 241 237 231 226 219 211 206 200 199 198 194 194 195 194 191 184 180 178 178 181 178 174
273 277 280 285 325 345 293 171 342 314 297 311 314 296 292 226 146 149 142 130 119 120 113 102 86 46 32 18 12 7 1 352 347 348 349 347 343 340 339 335 335 332 329 329 328 328 327 325 324 321 319 315 311 310 309 307 302 303 307 306 304 304 305 312 320 322 323 324 320 315 312 311 306 287 260 243 237 232 228 224 216 208 204 201 197 193 191 192 192 189 185 181 178 175 179 180 180
286 284 279 294 328 328 296 305 318 305 280 32 340 301 282 165 163 163 144 143 138 134 126 114 99 54 40 21 16 8 359 351 348 351 347 342 339 335 334 333 333 330 329 330 328 327 324 322 321 319 318 315 311 309 308 308 304 301 304 305 305 306 309 315 324 326 325 325 322 318 317 314 312 303 280 253 239 234 229 224 219 211 206 199 195 193 190 189 189 188 185 183 182 178 175 178 183
294 321 30 343 333 314 305 313 322 310 277 55 12 318 285 167 180 174 154 163 155 148 142 118 89 54 37 16 13 2 354 353 352 352 346 339 335 331 330 332 333 331 330 329 328 328 325 321 320 318 316 313 311 308 306 305 303 302 301 302 305 306 306 309 315 317 317 320 319 319 320 316 313 311 301 277 246 234 230 223 220 215 204 197 195 193 189 188 188 188 186 184 185 183 177 173 182
292 38 32 352 319 305 314 318 322 309 289 322 344 294 276 252 214 176 162 174 165 155 145 115 76 47 33 11 6 358 355 355 350 347 341 336 332 329 329 331 332 330 329 330 328 326 324 323 319 316 313 310 308 306 305 303 300 300 300 298 299 299 298 296 298 306 312 317 317 320 320 313 310 312 312 298 261 236 231 226 220 216 205 196 194 191 188 188 188 189 189 187 186 184 179 174 181
303 33 356 337 321 307 313 311 298 291 297 298 275 251 258 281 257 174 163 172 168 167 146 100 64 29 18 6 3 1 358 352 347 343 337 333 330 327 327 328 329 328 327 327 322 315 315 321 318 313 313 311 306 301 301 301 299 298 297 296 295 293 292 293 295 301 311 319 318 318 320 313 307 305 308 305 280 243 227 224 219 213 204 196 193 191 189 188 188 189 190 190 187 184 183 181 181
334 18 339 309 303 290 291 292 285 291 299 287 253 235 247 270 251 162 165 182 181 172 130 73 38 18 9 3 1 359 357 350 343 338 331 329 327 326 326 326 326 325 324 322 318 314 316 322 320 314 312 310 307 304 300 297 297 296 295 293 291 290 289 290 294 296 304 317 320 319 320 316 307 299 298 301 296 268 230 221 221 214 206 200 196 194 191 188 188 188 189 191 190 187 187 185 182
337 341 298 271 261 262 270 275 286 293 282 271 255 230 240 272 240 175 183 199 196 177 54 41 20 13 5 359 359 356 352 346 338 331 327 327 326 326 326 325 324 325 324 320 319 321 320 320 318 315 312 309 307 307 302 296 295 294 293 291 289 288 287 286 289 292 296 310 318 319 320 320 313 301 296 297 300 292 252 224 221 216 209 205 199 194 191 189 188 189 190 191 191 189 190 189 186
316 302 283 280 263 262 268 263 285 288 265 268 252 218 234 267 247 217 211 165 150 2 347 7 6 4 2 359 358 354 347 338 331 325 326 327 325 325 326 325 324 323 321 320 320 322 319 316 316 315 313 309 305 304 301 297 294 291 290 289 288 286 283 282 284 287 293 302 311 316 318 320 318 307 299 296 297 300 279 235 219 215 210 205 199 194 191 190 189 188 190 192 192 190 190 191 190
289 277 287 301 289 282 274 249 246 254 263 283 137 150 236 247 235 173 132 109 107 61 337 354 359 355 358 359 355 350 340 331 326 322 324 327 326 325 324 324 324 322 321 322 322 321 319 318 316 313 311 309 306 303 301 297 293 289 288 287 286 285 281 277 278 281 288 294 300 310 314 315 320 316 305 299 294 298 297 261 224 213 210 204 197 195 194 192 189 187 189 192 192 190 188 189 188
249 259 287 307 305 302 276 246 232 249 264 115 108 83 266 248 258 217 151 132 121 93 33 8 1 356 356 357 351 343 334 328 325 322 323 325 325 323 321 326 328 326 325 324 322 321 319 316 314 310 309 310 307 302 300 296 291 288 287 288 287 285 281 273 270 272 277 284 290 302 309 309 315 321 315 306 299 295 300 289 246 214 210 209 201 197 197 193 189 187 187 190 192 190 187 187 186
224 251 297 293 298 301 282 278 276 267 260 115 70 8 303 268 270 214 158 129 108 84 55 21 6 359 355 352 343 335 330 328 324 323 324 323 321 318 321 329 329 325 325 324 321 319 314 313 314 311 308 311 308 302 299 297 294 291 289 289 288 284 282 273 263 265 270 274 279 289 300 304 304 315 319 311 307 299 294 295 278 231 211 211 206 199 195 191 188 186 186 188 191 190 187 187 188
207 36 342 264 258 267 276 297 296 292 296 286 321 339 280 299 16 128 130 121 111 77 45 17 3 356 352 345 336 333 329 326 324 323 322 319 319 318 321 326 325 324 325 322 319 316 313 317 320 314 310 314 313 309 307 305 305 305 299 296 295 288 282 275 262 261 266 267 270 277 288 297 297 303 317 316 311 306 296 292 290 267 228 210 206 200 194 191 188 187 188 189 189 189 187 187 188
155 92 245 247 257 258 267 292 297 306 303 283 235 223 256 294 113 128 130 141 132 78 20 2 355 350 347 339 333 331 327 325 326 322 320 320 319 320 322 324 323 323 323 319 317 317 318 324 322 314 313 320 318 312 310 309 309 307 303 300 300 292 283 278 266 257 262 265 263 268 278 288 294 295 311 319 313 307 302 294 290 283 253 216 205 203 198 193 190 189 190 191 189 188 188 187 188
145 164 217 103 44 319 270 287 303 317 288 269 189 231 261 238 174 156 152 164 161 23 360 354 349 345 340 335 332 328 325 325 323 320 321 321 321 322 324 324 324 324 324 321 318 319 321 322 320 315 315 317 316 312 309 312 312 309 304 299 296 292 286 281 272 261 262 268 262 261 272 279 288 292 300 315 315 308 304 299 290 285 268 226 204 203 201 194 192 192 191 191 189 188 187 187 187
197 202 186 93 74 55 238 275 305 270 270 262 205 242 261 264 242 172 174 211 323 342 349 346 340 339 334 332 330 326 325 324 321 321 320 320 323 325 325 325 326 325 324 322 321 321 321 320 318 316 314 312 312 312 310 311 313 312 309 300 292 295 297 292 285 272 265 268 262 254 267 274 279 287 293 306 314 312 305 301 292 283 276 245 209 201 203 197 193 194 193 192 191 187 187 188 188
255 317 16 95 233 229 186 207 277 269 271 278 257 250 251 254 249 170 201 273 335 334 339 338 332 334 333 332 330 327 328 325 323 325 322 323 325 326 329 330 328 324 320 321 323 321 319 320 318 314 312 310 308 308 308 307 308 310 309 305 301 302 303 301 298 289 274 269 264 255 262 272 275 280 287 298 310 312 307 302 295 283 278 261 222 201 201 200 196 195 194 193 192 188 186 189 189
123 351 255 198 237 246 235 225 265 263 273 290 282 273 258 247 220 153 249 309 336 329 333 332 328 332 332 332 329 328 329 325 325 327 325 327 326 327 331 330 327 324 321 321 322 320 320 322 322 316 312 311 309 306 307 305 305 307 307 308 309 307 302 300 300 297 286 275 269 263 261 267 272 274 279 290 303 312 308 300 297 288 277 268 239 206 198 201 198 196 195 192 192 190 187 189 190
176 206 214 198 179 218 258 258 188 233 266 278 283 282 269 155 121 270 293 327 338 330 331 326 326 331 330 330 330 327 326 325 326 326 323 325 327 327 328 325 322 323 323 322 321 323 325 324 322 319 314 313 311 308 307 305 304 305 305 306 308 306 301 298 300 302 298 284 272 268 266 267 271 272 275 282 294 308 309 298 296 291 279 271 252 216 198 199 198 195 195 193 191 189 188 188 189
204 209 205 209 207 197 239 246 189 163 246 245 263 277 270 155 134 299 306 336 336 330 328 326 328 328 326 329 328 325 325 326 326 324 322 324 326 326 326 323 321 321 322 323 323 326 329 326 323 321 316 313 311 309 307 306 304 302 303 305 306 306 303 301 305 307 306 298 285 276 273 271 270 270 271 275 286 303 307 299 294 291 281 273 261 229 201 196 198 194 194 194 190 188 187 187 188